CRYOSAT 2

Last updated on Thu Sep 10 2026 00:03:32 GMT+0000 (Coordinated Universal Time)

1 36508U 10013A 26252.57760165 .00000059 00000+0 13878-4 0 9995 2 36508 92.0289 297.7982 0002450 84.6508 275.4978 14.51903913870328
UTC large
Height (km)
Speed (km/s)
/
Latitude / Longitude
Inclination (degrees)
Orbital Period (minutes)
Azimuth
Elevation
Range (km)
Doppler Factor

Next 0 passes for location: London (51.5072 / 0.1276)

No passes found over London.
CRYOSAT 2